Regional Weather Roundup
Issued by NWS Charleston, SC

Current Version | Previous Version | Graphics & Text | Print | Product List | Glossary On
Versions: 1 2 3 4 5 6 7 8 9 10 11 12 13 14 15 16 17 18 19 20 21 22 23 24 25 26 27 28 29 30 31 32 33 34 35 36 37 38 39 40 41 42 43 44 45 46 47 48 49 50
000 ASUS42 KCHS 210410 RWRCHS REGIONAL WEATHER ROUNDUP NATIONAL WEATHER SERVICE CHARLESTON SC 1200 AM EDT SUN SEP 21 2014 NOTE: "FAIR" INDICATES FEW OR NO CLOUDS BELOW 12,000 FEET WITH NO SIGNIFICANT WEATHER AND/OR OBSTRUCTIONS TO VISIBILITY. NOT ALL STATIONS ARE QUALITY CONTROLLED BY THE NATIONAL WEATHER SERVICE. USE DATA WITH CAUTION...ESPECIALLY DEWPOINT OBSERVATIONS. SCZ027-030-031-034>040-042>050-210500- ...SOUTH CAROLINA... CITY SKY/WX TMP DP RH WIND PRES REMARKS N CHARLESTON CLOUDY 74 63 68 N10 29.92F WATERFRONT PRK N/A 73 N/A N/A N12 N/A FORT JOHNSON NOT AVBL MOUNT PLEASANT MOCLDY 72 66 83 N6 29.91F JOHNS ISLAND CLEAR 72 72 100 NW8 29.92F PINOPOLIS N/A 75 64 69 N15 29.87S MONCKS CORNER N/A 73 68 83 N6 29.93F SUMMERVILLE FAIR 68 64 88 CALM 29.95F BEAUFORT MCAS PTCLDY 71 63 75 SW8 29.94F BEAUFORT ARPT FAIR 70 64 83 N9 29.93F HILTON HEAD IS PTCLDY 73 64 73 N12 29.94F GEORGETOWN NOT AVBL WALTERBORO MOCLDY 68 68 100 NW5 29.96F ORANGEBURG CLOUDY 69 61 75 N3 29.98S BARNWELL FAIR 64 63 94 NW3 30.00S AIKEN FAIR 63 63 100 CALM 30.04S MANNING FAIR 70 66 88 N5 29.95F KINGSTREE NOT AVBL COLUMBIA MOCLDY 67 60 78 CALM 29.99S SUMTER CLOUDY 70 61 72 N6 29.96S FLORENCE CLOUDY 72 62 71 N10 29.95F MYRTLE BEACH CLOUDY 72 66 83 N13 29.90F N MYRTLE BEACH CLOUDY 71 68 90 N6 29.89F $$ GAZ063-065-086>088-099>101-113>116-118-119-134-136>141-150-210500- ...GEORGIA... CITY SKY/WX TMP DP RH WIND PRES REMARKS SAVANNAH ARPT PTCLDY 71 62 73 NW6 29.96F HUNTER AAF PTCLDY 69 64 82 NW6 29.94F FORT STEWART PTCLDY 69 63 80 NW6 29.96F STATESBORO NOT AVBL SYLVANIA PTCLDY 74 68 82 CALM 29.99F CLAXTON FAIR 66 66 100 CALM 29.99S THOMSON PTCLDY 65 65 100 CALM 30.07S AUGUSTA-BUSH MOCLDY 62 60 93 CALM 30.00S AUGUSTA-DANIEL MOCLDY 72 60 66 N3 30.01F SWAINSBORO FAIR 68 68 100 CALM 30.01S VIDALIA PTCLDY 68 64 88 CALM 30.00F ALMA CLEAR 66 63 90 CALM 29.99F WAYCROSS NOT AVBL JESUP FAIR 70 68 94 NW3 29.98F BRUNSWICK CLEAR 68 64 88 CALM 29.97F SAINT SIMONS CLEAR 70 65 84 NW7 29.96F $$ SCZ027-028-034-036>038-045-046-048>050-GAZ119-141-210500- ...LAKE AND SUPPLEMENTAL COASTAL OBSERVATIONS... STATION/POSITION TIME TEMP WIND PRES WAVE SWELL AIR SEA DIR/SP/G HT/PER HT/PER/DIR (UTC) (F) (DEG/KT/KT) (MB) (FT/S) (FT/S/D) UPR LAKE MARION NOT AVBL WINYAH BAY 0300 70 350/ 5 1012.0F LAKE MURRAY 0300 70 350/ 2/ 3 1015.2S ACE BASIN NERRS 0300 71 360/ 2 1014.0S FORT PULASKI 0400 70 310/ 7/ 8 1014.3F SAPELO ISLAND 0300 72 340/ 6 1015.0S $$ ANZ835-935-AMZ111-154-330-350-352-354-374-450-454-472-210500- ...C-MAN AND BUOY OBSERVATIONS... STATION/POSITION TIME TEMP WIND PRES WAVE SWELL AIR SEA DIR/SP/G HT/PER HT/PER/DIR (UTC) (F) (DEG/KT/KT) (MB) (FT/S) (FT/S/D) FOLLY BEACH CMAN 0300 72 350/ 11/ 14 1013.6F BUOY 41004 0400 78 81 360/ 19/ 23 1010.3F 8/ 8 BUOY 41008 0400 77 83 10/ 17/ 21 1013.5R 6/ 6 2/ 90/ 9 5E ST. MARYS GA 0400 83 N/A 5/ 7 FRYING PAN BUOY NOT AVBL BUOY 41025 0400 77 90/ 19/ 23 1011.3F 8/ 9 5/ 90/ 9 CAPE LOOKOUT NC 0300 72 10/ 13/ 15 1011.7F BUOY 41002 0311 78 82 190/ 17/ 21 1011.8R 8/ 7 3/ 50/ 9 BUOY 41010 0400 81 84 240/ 17/ 19 1011.2F 5/ 8 3/ 30/ 8 BUOY 41012 NOT AVBL ST AUGUSTINE FL 0400 72 330/ 9/ 11 1014.4F CAPERS NEARSHORE 0300 73 10/ 16/ 17 N/A FRIPP NEARSHORE NOT AVBL $$

USA.gov is the U.S. government's official web portal to all federal, state and local government web resources and services.